◎アポロ型特異小惑星 2006 OK3の接近    [From JSGA Web News No. 82]



JSGA Web News No. 82                                              2006 Aug. 1



アポロ型特異小惑星 2006 OK3の接近

  サイディング・スプリングで 50-cmシュミットを使用して行なわれているスカイサーベ

イで 2006年7月22日14時UTすぎに17等級の高速移動天体が発見された.この小惑星は,

発見20時間後の7月23日10時UT頃に,地球に 0.0019 AU(約29万)に接近し,我々の視界

から去って行った.発見後の追跡観測も,最接近手前の19時間で終了した.この小惑星の

標準等級は,H=27.1等,その直径は13-mほどと推測される.



 次の軌道は,2006年7月22日から23日までの19時間に行なわれた56個の観測から決定さ

 れたもの.

               。

       Mo=   6.2254                Epoch = 2006 Sept. 22.0 TT

       ω =  66.7821                   e =   0.518693          H = 27.1

       Ω = 300.2566    (2000.0)       a =   1.677558 AU       G =  0.15

       i =  12.1874                   n゚=   0.4536154

       q =   0.807421 AU              P =   2.17 年



 参考のために,その接近状況と,地球上の経過点(経度と緯度)を示す.



2006/       time  UT      α  (2000)   δ         △        Mag.  Daily Motion  

 Sub-Long.    Sub-Lati.

  年 月 日   h  m  s     h  m  s       。  ,  "         AU    V        ,  PA 。   

    。  ,  "      。  ,  "

2006  7 20  00 00 00   20 03 25.2   -47 31 32     0.02925   20.7    65.2/ 50.2  

   3 20 47    -47 41 58 

2006  7 20  02 00 00   20 03 49.9   -47 28 03     0.02854   20.7    68.6/ 50.0  

 333 22 06    -47 38 29 

2006  7 20  04 00 00   20 04 15.8   -47 24 23     0.02784   20.6    72.2/ 49.9  

 303 23 29    -47 34 49 

2006  7 20  06 00 00   20 04 43.0   -47 20 31     0.02713   20.5    76.1/ 49.8  

 273 25 25    -47 30 56 

2006  7 20  08 00 00   20 05 11.5   -47 16 25     0.02643   20.5    80.3/ 49.6  

 243 27 41    -47 26 50 

2006  7 20  10 00 00   20 05 41.5   -47 12 04     0.02572   20.4    84.8/ 49.5  

 213 30 06    -47 22 29 

2006  7 20  12 00 00   20 06 13.0   -47 07 28     0.02502   20.4    89.8/ 49.3  

 183 33 08    -47 17 53 

2006  7 20  14 00 00   20 06 46.3   -47 02 35     0.02432   20.3    95.2/ 49.1  

 153 36 35    -47 13 00 

2006  7 20  16 00 00   20 07 21.5   -46 57 24     0.02361   20.2   101.1/ 49.0  

 123 40 18    -47 07 48 

2006  7 20  18 00 00   20 07 58.7   -46 51 52     0.02291   20.2   107.5/ 48.8  

  93 44 43    -47 02 16 

2006  7 20  20 00 00   20 08 38.1   -46 45 57     0.02221   20.1   114.6/ 48.7  

  63 49 42    -46 56 22 

2006  7 20  22 00 00   20 09 19.8   -46 39 38     0.02150   20.0   122.4/ 48.5  

  33 55 04    -46 50 02 

2006  7 21  00 00 00   20 10 04.3   -46 32 52     0.02080   19.9   131.0/ 48.3  

   4 01 18    -46 43 16 

2006  7 21  02 00 00   20 10 51.6   -46 25 36     0.02010   19.9   140.5/ 48.1  

 334 08 15    -46 36 00 

2006  7 21  04 00 00   20 11 42.1   -46 17 47     0.01940   19.8   151.1/ 48.0  

 304 15 48    -46 28 10 

2006  7 21  06 00 00   20 12 36.1   -46 09 20     0.01869   19.7   163.0/ 47.8  

 274 24 25    -46 19 43 

2006  7 21  08 00 00   20 13 34.0   -46 00 11     0.01799   19.6   176.2/ 47.6  

 244 34 01    -46 10 34 

2006  7 21  10 00 00   20 14 36.2   -45 50 16     0.01729   19.5   191.2/ 47.3  

 214 44 29    -46 00 38 

2006  7 21  12 00 00   20 15 43.2   -45 39 27     0.01659   19.4   208.1/ 47.1  

 184 56 23    -45 49 48 

2006  7 21  14 00 00   20 16 55.7   -45 27 38     0.01589   19.3   227.3/ 46.9  

 155 09 37    -45 37 58 

2006  7 21  16 00 00   20 18 14.2   -45 14 39     0.01519   19.2   249.3/ 46.6  

 125 24 09    -45 24 59 

2006  7 21  18 00 00   20 19 39.7   -45 00 21     0.01449   19.1   274.6/ 46.4  

  95 40 38    -45 10 40 

2006  7 21  20 00 00   20 21 12.9   -44 44 31     0.01379   19.0   304.0/ 46.1  

  65 59 04    -44 54 50 

2006  7 21  22 00 00   20 22 55.1   -44 26 53     0.01309   18.9   338.2/ 45.7  

  36 19 31    -44 37 11 

2006  7 22  00 00 00   20 24 47.6   -44 07 10     0.01239   18.7   378.6/ 45.4  

   6 42 45    -44 17 26 

2006  7 22  02 00 00   20 26 52.0   -43 44 56     0.01170   18.6   426.6/ 45.0  

 337 08 57    -43 55 11 

2006  7 22  04 00 00   20 29 10.3   -43 19 44     0.01100   18.5   484.1/ 44.6  

 307 38 24    -43 29 57 

2006  7 22  06 00 00   20 31 44.9   -42 50 55     0.01031   18.3   553.9/ 44.2  

 278 12 09    -43 01 06 

2006  7 22  08 00 00   20 34 38.8   -42 17 40     0.00962   18.1   639.8/ 43.7  

 248 50 43    -42 27 49 

2006  7 22  10 00 00   20 37 55.9   -41 38 55     0.00892   18.0   746.9/ 43.1  

 219 34 52    -41 49 01 

2006  7 22  12 00 00   20 41 40.9   -40 53 16     0.00824   17.8   882.7/ 42.5  

 190 26 12    -41 03 16 

2006  7 22  14 00 00   20 46 00.3   -39 58 43     0.00755   17.6  1058.4/ 41.8  

 161 26 06    -40 08 38 

2006  7 22  16 00 00   20 51 02.2   -38 52 32     0.00687   17.4  1290.0/ 41.0  

 132 36 25    -39 02 20 

2006  7 22  18 00 00   20 56 57.6   -37 30 48     0.00620   17.1  1603.7/ 40.1  

 104 00 19    -37 40 26 

2006  7 22  20 00 00   21 04 01.7   -35 47 43     0.00553   16.9  2040.9/ 39.0  

  75 41 22    -35 57 05 

2006  7 22  22 00 00   21 12 35.4   -33 34 24     0.00487   16.6  2668.8/ 37.8  

  47 44 34    -33 43 23 

2006  7 23  00 00 00   21 23 08.4   -30 36 56     0.00423   16.3  3603.3/ 36.4  

  20 17 47    -30 45 19 

2006  7 23  02 00 00   21 36 23.9   -26 32 38     0.00361   16.0  5036.7/ 34.8  

 353 31 37    -26 40 04 

2006  7 23  04 00 00   21 53 26.4   -20 44 13     0.00303   15.7  7251.8/ 33.1  

 327 41 54    -20 49 57 

2006  7 23  06 00 00   22 15 51.0   -12 12 51     0.00251   15.5 10463.4/ 31.5  

 303 12 56    -12 15 36 

2006  7 23  08 00 00   22 45 57.7   +00 15 00     0.00211   15.4 13993.3/ 30.7  

 280 39 28    + 0 17 14 

2006  7 23  10 00 00   23 26 50.3   +16 52 25     0.00189   15.7      . /   .   

 260 47 22    +17 01 01 

2006  7 23  12 00 00   00 21 12.2   +34 23 24     0.00193   16.4 13118.6/ 38.2  

 244 18 08    +34 36 16 

2006  7 23  14 00 00   01 27 56.1   +47 40 15     0.00220   17.4  9503.6/ 49.3  

 230 54 52    +47 53 38 

2006  7 23  16 00 00   02 38 19.7   +55 05 42     0.00264   18.4  6555.9/ 63.1  

 218 26 37    +55 18 05 

2006  7 23  18 00 00   03 40 37.4   +58 17 41     0.00318   19.4  4584.0/ 76.1  

 203 56 58    +58 29 09 

2006  7 23  20 00 00   04 29 15.3   +59 15 34     0.00377   20.2  3311.4/ 86.5  

 186 02 00    +59 26 29 

2006  7 23  22 00 00   05 05 15.2   +59 13 37     0.00440   20.9  2474.7/ 94.3  

 164 57 02    +59 24 15 

2006  7 24  00 00 00   05 31 45.7   +58 48 02     0.00505   21.5  1907.3/100.0  

 141 29 48    +58 58 32 

2006  7 24  02 00 00   05 51 36.6   +58 14 46     0.00571   22.0  1509.4/104.2  

 116 22 37    +58 25 12 

2006  7 24  04 00 00   06 06 49.2   +57 40 29     0.00638   22.4  1221.0/107.4  

  90 05 38    +57 50 54 

2006  7 24  06 00 00   06 18 45.0   +57 07 54     0.00705   22.8  1006.6/109.9  

  62 59 38    +57 18 18 

2006  7 24  08 00 00   06 28 18.5   +56 37 56     0.00773   23.2   843.3/111.9  

  35 18 06    +56 48 20 

2006  7 24  10 00 00   06 36 07.0   +56 10 45     0.00842   23.5   716.1/113.6  

   7 10 05    +56 21 10 

2006  7 24  12 00 00   06 42 36.0   +55 46 16     0.00911   23.7   615.4/114.9  

 338 42 25    +55 56 40 

2006  7 24  14 00 00   06 48 03.7   +55 24 12     0.00980   24.0   534.4/116.0  

 309 59 25    +55 34 38 

2006  7 24  16 00 00   06 52 43.2   +55 04 19     0.01049   24.2   468.2/117.0  

 281 04 11    +55 14 45 

2006  7 24  18 00 00   06 56 44.2   +54 46 21     0.01119   24.4   413.5/117.8  

 251 59 32    +54 56 48 

2006  7 24  20 00 00   07 00 14.1   +54 30 05     0.01188   24.6   367.9/118.6  

 222 47 07    +54 40 32 

 

 

軌道と残差:

 

2006 OK3

Epoch 2006 Sept. 22.0 TT = JDT 2454000.5                Nakano

M   6.22545              (2000.0)            P               Q

n   0.45361535     Peri.   66.78208     +0.97457272     -0.13021445

a   1.6775580      Node   300.25663     +0.02567907     +0.87335476

e   0.5186928      Incl.   12.18740     +0.22259515     +0.46935664

P   2.17           H   27.1           G   0.15           U   6

Residuals in seconds of arc 

060722 E12  0.6-  0.6-    060722 E12  2.0+  1.7+    060723 G96  0.1+  0.3-  

060722 E12  0.4-  0.4-    060722 E12  0.4+  0.2+    060723 G96 (2.7+  4.0+) 

060722 E12  0.4+  0.2+    060722 E12  0.0   0.7-    060723 734  0.3+  0.4+  

060722 E12  0.0   0.1+    060723 I77  1.2+  1.0+    060723 734 (2.4-  4.5-) 

060722 E12  0.0   0.0     060723 I77  0.0   0.2+    060723 734 (1.3-  2.0-) 

060722 E12  0.8+  0.5+    060723 I77  0.3+  0.1-    060723 734 (1.1-  2.7-) 

060722 E12  0.1+  0.1-    060723 I77  0.3-  0.2-    060723 734 (2.7-  5.7-) 

060722 E12  0.0   0.1-    060723 I77 (1.6-  0.5-)   060723 734 (1.5-  3.6-) 

060722 E12  0.4+  0.4+    060723 I77  0.7+  0.0     060723 G96 (2.9+  4.6+) 

060722 E12  0.1-  0.0     060723 J95  0.8+  0.9-    060723 G96  1.4+  1.6+  

060722 E12  0.1+  0.2+    060723 J95  0.2-  0.2+    060723 G96  0.8-  1.9-  

060722 E12  0.0   0.2+    060723 J95  0.7-  1.5+    060723 G96 (2.0+  2.9+) 

060722 E12  0.1-  0.0     060723 G96 (1.8+  2.5+)   060723 G96 (1.8+  2.4+) 

060722 E12  0.0   0.1+    060723 G96  0.2-  0.4-    060723 G96  1.0+  1.0+  

060722 E12  0.3-  0.8-    060723 G96  0.9+  0.3+    060723 G96 (2.3+  3.2+) 

060722 E12  0.2+  0.4+    060723 G96  0.7+  1.8+    060723 G96 (1.0-  2.3-) 

060722 E12  0.4-  0.4-    060723 G96  0.3-  1.0-    060723 G96  1.5+  2.0+  

060722 E12  0.2-  0.5+    060723 G96 (0.9-  2.1-)   060723 G96  0.6-  2.0-  

060722 E12  0.0   0.6+    060723 G96 (3.7+  6.0+)   060723 G96 (1.8-  3.7-) 

060722 E12  0.3+  0.5-    060723 G96 (3.0+  4.3+)   060723 G96 (3.9+  6.1+) 

060722 E12  0.1+  0.2+    060723 G96  0.1+  0.2-    060723 G96 (2.0+  1.9+) 

060722 E12  0.5+  0.6+    060723 G96 (1.6+  2.9+)   060723 G96  0.3-  1.7-  

060722 E12  0.6+  0.2+    060723 G96  0.2+  0.3+    060723 G96  0.7+  0.0   

060722 E12  0.2+  0.5-    060723 G96  1.2+  1.8+    060723 G96 (3.1-  6.4-) 

060722 E12  0.4+  0.8+    060723 G96  0.4+  1.2+                            

060722 E12  0.1+  0.0     060723 G96  0.0   0.2+                            

 

日本スペースガード協会            (c) Copyright JSGA 2006          中野 主一

         **** Don't distribute anyone except personal use only ****

                (C) Copyright 2006 OAA/ComputingSection

write mail from CFAD0::NAKANO on 2006-08-01 03:50:17(JST).

 



戻ります。